Location: Unspecified
(0.0000°N, 0.0000°E)
Time: 23:19:39
(UTC+00:00)

CUTE-I - Pass Details

Date: 04 June 2019
Orbit: 810 x 825 km, 98.7° (Epoch: 15 June)

Event Time Altitude Azimuth Distance (km) Brightness Sun altitude
Rises 18:54:36 0° 195° (SSW) 3,348 ? -13.0°
Reaches altitude 10° 18:57:35 10° 212° (SSW) 2,411 ? -13.7°
Maximum altitude 19:01:18 19° 257° (WSW) 1,834 ? -14.5°
Drops below altitude 10° 19:05:00 10° 302° (WNW) 2,397 ? -15.4°
Sets 19:07:58 0° 319° (NW) 3,323 ? -16.0°
